Terminal Aerodrome Forecast
Issued by NWS State College, PA

Home | Current Version | Previous Version | Text Only | Print | Product List | Glossary On
Versions: 1 2 3 4 5 6 7 8 9 10 11 12 13 14 15 16 17 18 19 20 21 22 23 24 25 26 27 28 29 30 31 32 33 34 35 36 37 38 39 40 41 42 43 44
000
FTUS41 KCTP 271139
TAFIPT
TAF
KIPT 271139Z 2712/2812 26006KT P6SM -SN SCT030 OVC045
     FM271400 30007KT P6SM SCT030 OVC050
     FM280300 30010G19KT P6SM VCSH BKN028 BKN045=

USA.gov is the U.S. government's official web portal to all federal, state and local government web resources and services.